155  
ASUS42 KTBW 191018  
RWRFL  
FLORIDA REGIONAL WEATHER ROUNDUP  
NATIONAL WEATHER SERVICE TAMPA BAY RUSKIN FL  
600 AM EDT FRI JUL 19 2019  
 
NOTE: "FAIR" INDICATES FEW OR NO CLOUDS BELOW 12,000 FEET WITH NO  
SIGNIFICANT WEATHER AND/OR S TO VISIBILITY
.  
 
FLZ001>010-012>015-112-114-115-191100-  
PANHANDLE FLORIDA  
 
CITY SKY/WX TMP DP RH WIND PRES REMARKS
 
PENSACOLA FAIR 79 79 100 CALM 30.03R  
PENSACOLA NAS FAIR 77 77 100 CALM 30.02S  
MILTON NAS FAIR 74 74 100 CALM 30.04R  
CRESTVIEW FAIR 74 72 93 CALM 30.05R  
DUKE FIELD FAIR 75 75 100 CALM 30.04R  
VALPARAISO FAIR 77 74 90 CALM 30.03R  
MARY ESTHER PTCLDY 76 74 93 CALM 30.02R  
TRI COUNTY FAIR 75 74 96 CALM 30.05R  
PANAMA CITY FAIR 76 73 91 CALM 30.03R  
TYNDALL AFB FAIR 78 75 91 CALM 30.03R  
APALACHICOLA FAIR 78 75 90 E3 30.03S  
 
STATION/POSITION SKY/WX TEMP WIND PRES WAVE SWELL
 
AIR SEA DIR/SP/G HT/PER HT/PER  
(F) (DEG/KT/KT) (MB) (FT/S) (FT/S)  
30.1N 87.6W 85 86 220/ 6/ 8 1016.8R 1/ 6  
29.2N 88.2W 84 87 180/ 4/ 8 1017.0  
28.8N 86.0W 84 86 170/ 4/ 6 1017.1R 1/ 5 2/ 5  
PANAMA CITY BEAC 82 86 20/ 1/ 2 1017.4R  
TOWER C 83 180/ 1/ 2 1017.4S  
28.5N 84.5W 84 170/ 4/ 6 1017.7R  
 

 
FLZ011-016>038-118-127-128-134-139-239-191100-  
NORTH FLORIDA  
 
CITY SKY/WX TMP DP RH WIND PRES REMARKS
 
MARIANNA FAIR 76 74 93 S3 30.03S  
TALLAHASSEE MOCLDY 77 76 96 CALM 30.04S  
PERRY FAIR 77 76 97 CALM 30.06R FOG  
LIVE OAK CLEAR 75 75 100 CALM 30.05S  
CROSS CITY FAIR 75 74 98 CALM 30.05S  
LAKE CITY FAIR 75 73 94 CALM 30.06S  
GAINESVILLE FAIR 75 74 96 CALM 30.08S  
WILLISTON FAIR 74 73 99 CALM 30.06R  
PALATKA FAIR 73 73 100 CALM 30.06S  
MAYPORT NAS CLOUDY 79 74 84 SW6 30.05R  
JACKSONVILLE FAIR 76 74 93 CALM 30.05R  
JAX NAS MOCLDY 81 73 76 SW5 30.06R  
JAX CECIL FAIR 75 73 94 CALM 30.06R  
FERNANDINA BEA FAIR 79 76 90 SW6 30.05S  
ST AUGUSTINE FAIR 76 74 93 SW5 30.07R  
PALM COAST CLEAR 73 72 94 CALM 30.07R  
 
STATION/POSITION SKY/WX TEMP WIND PRES WAVE SWELL
 
AIR SEA DIR/SP/G HT/PER HT/PER  
(F) (DEG/KT/KT) (MB) (FT/S) (FT/S)  
SHELL POINT 80 81 CALM / 1 1016.7  
KEATON BEACH 80 50/ 2/ 2 1017.6S  
CEDAR KEY 84 160/ 4/ 5 1017.6R  
FERNANDINA 84 86 CALM / 1 1018.2R  
30.7N 81.3W 82 N/A 2/ 8  
MAYPORT 80 84 230/ 5/ 7 1018.0R  
31.4N 80.9W 83 84 220/ 10/ 12 1016.7F 2/ 4 2/ 8  
ST AUGUSTINE 77 78 240/ 5/ 6 1018.1R  
 

 
FLZ040-043>046-052-053-057-058-063-144-191100-  
INTERIOR CENTRAL FLORIDA  
 
CITY SKY/WX TMP DP RH WIND PRES REMARKS
 
OCALA FAIR 73 72 96 CALM 30.07R  
LEESBURG FAIR 77 73 87 S7 30.07R  
SANFORD FAIR 77 72 84 S6 30.06S  
ORLANDO EXEC FAIR 77 73 87 CALM 30.07R  
ORLANDO INTL FAIR 75 72 90 CALM 30.07R  
WINTER HAVEN FAIR 77 72 84 SE3 30.08R  
LAKELAND CLEAR 73 72 94 CALM 30.07R  
BARTOW FAIR 73 72 94 CALM 30.06R  
SEBRING FAIR 75 72 92 E3 30.07R  
OKEECHOBEE FAIR 72 72 100 CALM 30.06S FOG  
 

 
FLZ041-047-054-059-064-141-147-191100-  
EAST CENTRAL FLORIDA  
 
CITY SKY/WX TMP DP RH WIND PRES REMARKS
 
DAYTONA BEACH FAIR 75 74 96 SW3 30.07R  
DELAND FAIR 75 73 94 CALM 30.06S  
JFK SPACE CTR CLEAR 76 65 67 S3 30.06R  
CAPE CANAVERAL CLEAR 75 53 44 CALM 30.05S  
PATRICK AFB FAIR 79 79 100 CALM 30.06S  
MELBOURNE FAIR 77 74 90 SW3 30.06S  
VERO BEACH FAIR 73 71 93 CALM 30.07R  
FT PIERCE FAIR 72 70 93 CALM 30.06S FOG  
STUART FAIR 77 73 88 CALM 30.07S  
 
STATION/POSITION SKY/WX TEMP WIND PRES WAVE SWELL
 
AIR SEA DIR/SP/G HT/PER HT/PER  
(F) (DEG/KT/KT) (MB) (FT/S) (FT/S)  
28.5N 80.2W 82 83 200/ 8/ 8 1017.8R 2/ 9 2/ 9  
28.9N 78.5W 84 86 160/ 10/ 14 N/A 3/ 8 2/ 8  
TRIDENT PIER 80 84 190/ 5/ 6 1019.3S  
28.4N 80.5W 81 N/A 1/ 9  
27.5N 80.2W 82 N/A 1/ 8  
 

 
FLZ050-056-061-142-242-148-248-149-249-151-251-155-255-  
160-260-191100-  
WEST CENTRAL FLORIDA  
 
CITY SKY/WX TMP DP RH WIND PRES REMARKS
 
CRYSTAL RIVER FAIR 72 72 100 CALM 30.06S  
INVERNESS FAIR 72 72 100 CALM 30.07S  
BROOKSVILLE FAIR 73 72 96 CALM 30.07R  
CLEARWATER AIR FAIR 79 75 89 CALM 30.05R  
ST PETE CLEARW FAIR 77 75 93 SE5 30.04S  
TAMPA INTL FAIR 78 73 84 SE3 30.05S  
TAMPA EXEC FAIR 72 72 100 CALM 30.06S  
PLANT CITY FAIR N/A N/A N/A MISG 30.08R  
MACDILL AFB FAIR 76 73 90 SE5 30.05R  
PETER O KNIGHT FAIR N/A N/A N/A E3 30.05S  
ST PETERSBURG FAIR 79 74 84 S10 30.03S  
SARASOTA FAIR 75 73 93 E3 30.03S  
VENICE FAIR 75 73 94 E5 30.05S  
 
STATION/POSITION SKY/WX TEMP WIND PRES WAVE SWELL
 
AIR SEA DIR/SP/G HT/PER HT/PER  
(F) (DEG/KT/KT) (MB) (FT/S) (FT/S)  
27.3N 84.2W 87 N/A 2/ 3  
CLEARWATER BEACH 81 89 140/ 4/ 8 1017.4F  
MIDDLE TAMPA BAY 78 150/ 10/ 11 1017.4F  
VENICE 76 86 70/ 4/ 6 1017.4R  
 

 
FLZ066-069-070-075>078-162-262-165-265-191100-  
SOUTHWEST FLORIDA AND KEYS  
 
CITY SKY/WX TMP DP RH WIND PRES REMARKS
 
PUNTA GORDA FAIR 76 75 97 E5 30.07R  
FT MYERS FAIR 76 74 93 E3 30.04S  
SOUTHWEST INTL FAIR 76 74 93 E5 30.05S  
MARCO ISLAND FAIR 76 75 97 MISG 30.05F  
IMMOKALEE FAIR 75 73 94 CALM 30.04R  
MARATHON FAIR 84 74 71 E8 30.03S  
KEY WEST NAS FAIR 85 73 67 E13 30.03R  
KEY WEST INTL FAIR 83 74 74 E12 30.03S  
 
STATION/POSITION SKY/WX TEMP WIND PRES WAVE SWELL
 
AIR SEA DIR/SP/G HT/PER HT/PER  
(F) (DEG/KT/KT) (MB) (FT/S) (FT/S)  
NAPLES 78 86 1017.3S  
26.0N 85.6W 84 85 120/ 12/ 14 1016.8R 2/ 5 2/ 9  
DRY TORTUGAS 85 110/ 12/ 13 1016.8S  
SAND KEY 84 110/ 15/ 17 1015.6  
SOMBRERO KEY 84 100/ 11/ 13 1017.1  
LONG KEY 85 1016.3  
 

 
FLZ067-068-071>074-168-172>174-191100-  
SOUTHEAST FLORIDA  
 
CITY SKY/WX TMP DP RH WIND PRES REMARKS
 
W PALM BEACH FAIR 80 73 79 SE5 30.06S  
FT LAUDER-EXEC FAIR 79 74 84 E5 30.05R  
FT LAUDERDALE FAIR 83 75 77 E12 30.04S  
POMPANO BEACH FAIR 84 74 71 E8 30.05R  
PEMBROKE PINES FAIR 80 74 81 CALM 30.07R  
OPA LOCKA FAIR 81 75 82 E6 30.06R  
MIAMI LGT RAIN 82 73 74 VRB5 30.05R  
WEST KENDALL FAIR 80 74 81 NE6 30.05R  
HOMESTEAD FAIR 81 75 80 E6 30.04R  
 
STATION/POSITION SKY/WX TEMP WIND PRES WAVE SWELL
 
AIR SEA DIR/SP/G HT/PER HT/PER  
(F) (DEG/KT/KT) (MB) (FT/S) (FT/S)  
PORT EVERGLADES 84 90/ 8/ 11 1017.5  
VIRGINIA KEY 83 89 50/ 8/ 11 1016.9S  
LAKE WORTH 83 85 120/ 9/ 10 1019.0R  
FOWEY ROCKS 84 85 110/ 13/ 14 1017.6R  
SETTLEMENT POINT 82 140/ 5/ 6 1018.0R  
 

 
 
 
 
CLICK HERE TO GO TO PREVIOUS BULLETINS.

The Nexlab FL Page Main Text Page